Date,TemperatureHighF,TemperatureAvgF,TemperatureLowF,DewpointHighF,DewpointAvgF,DewpointLowF,HumidityHigh,HumidityAvg,HumidityLow,PressureMaxIn,PressureMinIn,WindSpeedMaxMPH,WindSpeedAvgMPH,GustSpeedMaxMPH,PrecipitationSumIn
2013-3-1,41.7,36.3,32.4,30.5,26.4,21.9,78,67,51,29.31,29.15,5,1,8,0.00
2013-3-2,38.3,31.1,27.5,23.2,19.8,16.1,71,63,50,29.30,29.22,7,1,12,0.00
2013-3-3,40.1,32.1,27.0,22.7,18.4,14.3,74,58,38,29.28,29.21,6,1,14,0.00
2013-3-4,44.4,33.9,26.4,17.8,15.4,10.0,61,47,28,29.96,29.88,8,1,17,0.00
2013-3-5,49.5,37.2,26.6,30.2,17.6,9.0,89,48,24,29.98,29.70,8,1,14,0.00
2013-3-6,37.8,33.4,31.1,35.0,32.1,29.9,100,95,85,29.95,29.60,7,1,20,0.00
2013-3-7,52.9,37.1,30.9,32.3,29.2,25.5,91,75,38,30.09,29.95,8,1,14,0.35
2013-3-8,59.9,37.0,30.0,31.5,27.5,22.0,86,71,29,30.24,30.08,8,1,21,0.00
2013-3-9,45.0,41.7,0.0,27.9,25.8,24.1,56,51,46,29.95,29.19,2,1,4,0.00
2013-3-10,79.5,47.6,33.3,32.3,26.2,14.0,72,48,10,29.94,29.83,3,1,8,0.00
2013-3-11,57.9,51.6,40.6,47.4,40.0,24.6,86,67,36,29.91,29.60,3,1,7,0.00
2013-3-12,54.9,48.4,36.5,50.7,41.1,28.3,96,77,51,29.71,29.51,7,1,11,0.32
2013-3-13,47.5,37.5,29.8,29.0,24.0,15.1,76,59,31,29.81,29.66,9,1,16,0.00
2013-3-14,48.2,34.4,26.2,20.8,16.9,12.3,66,49,29,29.88,28.96,8,2,19,0.32
2013-3-15,58.3,42.0,28.6,32.2,24.3,14.9,69,51,29,29.81,28.90,7,1,14,0.00
2013-3-16,53.8,43.3,34.9,41.2,35.0,30.7,89,73,57,29.78,29.51,5,1,11,0.00
2013-3-17,39.2,35.9,34.2,32.4,27.0,20.8,90,71,51,30.09,29.77,5,1,11,0.00
2013-3-18,37.4,32.2,29.7,31.8,28.9,23.0,100,88,62,30.13,29.73,3,0,7,0.01
2013-3-19,58.6,40.4,31.8,40.9,25.6,-3.4,99,66,12,29.78,29.59,11,1,17,0.17
2013-3-20,53.4,39.0,28.9,28.3,14.5,-3.1,74,40,12,29.83,29.62,7,2,15,0.00
2013-3-21,40.1,30.5,24.6,26.6,14.3,5.7,75,52,29,29.74,29.63,7,1,15,0.00
2013-3-22,48.2,33.1,23.7,19.2,15.4,10.6,66,49,24,29.86,29.73,7,1,14,0.00
2013-3-23,54.7,38.2,26.6,23.7,19.3,10.3,71,50,17,29.88,29.77,5,1,10,0.00
2013-3-24,43.5,34.6,31.5,30.4,23.7,18.7,91,65,43,29.85,29.48,6,1,10,0.00
2013-3-25,39.6,34.5,30.9,34.8,31.9,29.7,96,90,77,29.57,29.38,4,0,6,0.34
2013-3-26,47.7,38.0,31.3,34.3,29.5,24.5,95,74,45,29.87,29.56,7,1,14,0.02
2013-3-27,50.4,37.9,30.7,34.4,28.0,25.0,82,68,44,29.99,29.86,6,1,12,0.00
2013-3-28,49.5,39.5,33.4,31.9,28.2,25.1,75,65,48,30.09,29.93,4,1,16,0.00
2013-3-29,55.0,44.1,35.2,33.4,27.7,16.8,79,55,25,30.11,30.00,5,1,11,0.00
2013-3-30,61.5,46.1,35.1,27.0,20.2,0.3,66,40,10,30.08,29.83,7,1,12,0.00
2013-3-31,48.6,44.4,41.7,46.3,37.1,25.0,96,77,46,29.83,29.49,2,0,4,0.20